Voltar ao catálogo

EXPRESS AM-5

AtivoComunicaçõesGEO
NORAD 39487·PAYLOAD·🇷🇺 Russia

Lançado Dec 26, 2013 de Baikonur Cosmodrome

Loading…

TLE

AtualizadoSource: Space-Track

Época: Sep 14, 2026, 12:45 UTC

1 39487U 13077A   26257.53162873 -.00000288  00000-0  00000-0 0  9995
2 39487   0.0277 252.3062 0001796 240.2703 192.3476  1.00272270 47251

Acompanhe EXPRESS AM-5 em tempo real com AllMySat

Download on the App Store